Overview Statistics Trail Chart Weather Telemetry Raw packets
 

This is the latest recevied weather packets stored in our database for station/object HS5AU-13. If no packets are shown the sender has not sent any weather packets the latest 10 day(s).

<< 37 38 39 40 41 42 43 >>
Time Temp. Humidity Pressure Rain* Wind** Luminosity Snow
1788025500 22.78° C 99% 1001.8 hPa 0 mm - 2 W/m² -
1788024900 22.78° C 99% 1001.9 hPa 0 mm - 2 W/m² -
1788024300 22.78° C 99% 1002.1 hPa 0 mm - 2 W/m² -
1788023700 22.78° C 97% 1001.9 hPa 0 mm - 2 W/m² -
1788023100 23.33° C 96% 1001.8 hPa 0 mm - 2 W/m² -
1788022500 23.33° C 96% 1001.9 hPa 0 mm - 2 W/m² -
1788021900 23.33° C 94% 1002.3 hPa 0 mm - 2 W/m² -
1788021300 23.89° C 91% 1002.6 hPa 0 mm - 2 W/m² -
1788020700 23.89° C 92% 1002.8 hPa 0 mm - 2 W/m² -
1788020100 23.89° C 91% 1002.9 hPa 0 mm - 2 W/m² -
1788019500 23.89° C 91% 1002.9 hPa 0 mm - 2 W/m² -
1788018900 23.89° C 89% 1003.1 hPa 0 mm - 2 W/m² -
1788018300 23.89° C 91% 1002.8 hPa 0 mm - 2 W/m² -
1788017700 23.89° C 93% 1002.7 hPa 0 mm - 2 W/m² -
1788017100 23.33° C 93% 1002.5 hPa 0 mm - 2 W/m² -
1788016510 23.33° C 96% 1002.3 hPa 0 mm - 2 W/m² -
1788015909 23.33° C 96% 1002.2 hPa 0 mm - 2 W/m² -
1788015300 23.33° C 96% 1002 hPa 0 mm - 2 W/m² -
1788014700 23.33° C 96% 1002 hPa 0 mm - 2 W/m² -
1788014100 23.33° C 97% 1001.9 hPa 0 mm - 2 W/m² -
1788013500 23.33° C 98% 1001.7 hPa 0 mm - 2 W/m² -
1788012900 23.33° C 98% 1001.6 hPa 0 mm - 2 W/m² -
1788012300 23.33° C 98% 1001.2 hPa 0 mm - 2 W/m² -
1788011700 23.33° C 98% 1001 hPa 0 mm - 2 W/m² -
1788011100 23.33° C 98% 1000.8 hPa 0 mm - 2 W/m² -

* Rain latest hour (hover to see other rain measurements)
** Current wind speed in m/s (hover to see current wind gust speed)